Regional Weather Roundup
Issued by NWS Cleveland, OH

Home | Current Version | Previous Version | Text Only | Print | Product List | Glossary Off
Versions: 1 2 3 4 5 6 7 8 9 10 11 12 13 14 15 16 17 18 19 20 21 22 23 24 25 26 27 28 29 30 31 32 33 34 35 36 37 38 39 40 41 42 43 44 45 46 47 48 49 50

000
ASUS41 KCLE 121110
RWRCLE
OHIO REGIONAL WEATHER ROUNDUP
NATIONAL WEATHER SERVICE CLEVELAND, OH
700 AM EDT SAT JUL 12 2014

NOTE: "FAIR" INDICATES FEW OR NO CLOUDS BELOW 12,000 FEET WITH NO
SIGNIFICANT WEATHER AND/OR OBSTRUCTIONS TO VISIBILITY.

OHZ001>008-015>018-024>027-034-035-043-044-121200-
   NORTHWEST OHIO

CITY           SKY/WX    TMP DP  RH WIND       PRES   REMARKS
DEFIANCE       CLEAR     65  61  87 CALM      30.13F
FINDLAY        PTCLDY    68  62  81 SE3       30.14F
TOLEDO EXPRESS CLEAR     61  59  93 CALM      30.13F
TOLEDO EXEC    CLEAR     66  59  78 CALM      30.15S
LIMA           CLOUDY    69  61  75 S7        30.16S
$$

OHZ009>014-019>023-028>033-038-089-121200-
   NORTHEAST OHIO

CITY           SKY/WX    TMP DP  RH WIND       PRES   REMARKS
CLE-HOPKINS    PTCLDY    67  54  63 S7        30.18F
CLE-LAKEFRONT  PTCLDY    69  54  58 SE10      30.14F
CUY CO. ARPT   PTCLDY    66  54  63 SE9       30.18
LORAIN-ELYRIA  MOCLDY    69  59  70 S6        30.16F
ASHTABULA      PTCLDY    59  56  89 CALM      30.19F
AKRON-CANTON   CLOUDY    66  59  78 S3        30.19S
WOOSTER        CLOUDY    64  61  90 CALM      30.19F FOG
MANSFIELD      CLOUDY    66  60  81 SE5       30.18F
YOUNGSTOWN     MOCLDY    62  58  86 E5        30.19F
$$

OHZ042-051>053-060>062-070>072-077>081-121200-
  SOUTHWEST OHIO

CITY           SKY/WX    TMP DP  RH WIND       PRES   REMARKS
CINC-COVINGTON MOCLDY    64  60  87 CALM      30.17S
CINC-LUNKEN    PTCLDY    61  60  97 CALM      30.17S FOG
HAMILTON       MOCLDY    63  62  97 CALM      30.17F FOG
DAYTON         CLOUDY    70  62  76 SE3       30.17F
WRIGHT-PAT AFB CLOUDY    67  62  83 CALM      30.16F
DAYTON GENERAL CLOUDY    69  62  78 CALM      30.16F
WILMINGTON     CLOUDY    65  61  87 SE3       30.17F
$$

OHZ036-037-039>041-045>050-054>059-063>069-073>076-082>088-121200-
  CENTRAL AND SOUTHEAST OHIO

CITY           SKY/WX    TMP DP  RH WIND       PRES   REMARKS
COLUMBUS       CLOUDY    70  59  68 SE3       30.16F
OSU AIRPORT    CLOUDY    67  62  84 CALM      30.16F
BOLTON FIELD   CLOUDY    65  62  89 CALM      30.17F
RICKENBACK AFB CLOUDY    65  58  79 E3        30.17S
NEWARK         MOCLDY    63  60  90 CALM      30.18S FOG
MARION         CLOUDY    66  60  81 CALM      30.17F
LANCASTER      MOCLDY    63  59  87 CALM      30.18F
ZANESVILLE     MOCLDY    63  59  87 CALM      30.19S
NEW PHILLY     MOCLDY    63  61  93 CALM      30.20S FOG
$$


USA.gov is the U.S. government's official web portal to all federal, state and local government web resources and services.